Location: Litvinovka
(48.6667°N, 34.3500°E)
Time: 03:53:34
(UTC+00:00)

Cosmos 1805 - Pass Details

Date: 18 September 2020
Orbit: 524 x 531 km, 82.5° (Epoch: 22 October)

Event Time Altitude Azimuth Distance (km) Brightness Sun altitude
Exits shadow 17:24:53 24° 69° (ENE) 1,123 4.5 -16.3°
Drops below altitude 10° 17:27:23 10° 32° (NNE) 1,792 5.8 -16.7°
Sets 17:29:46 0° 20° (NNE) 2,689 6.9 -17.1°
